Location: Mercogliano
(40.9167°N, 14.7333°E)
Time: 14:55:07
(UTC+00:00)

Cosmos 1125 Rocket - Pass Details

Date: 18 September 2020
Orbit: 758 x 779 km, 74.0° (Epoch: 28 October)

Event Time Altitude Azimuth Distance (km) Brightness Sun altitude
Rises 18:55:09 0° 189° (S) 3,238 6.6 -21.2°
Reaches altitude 10° 18:57:32 10° 186° (S) 2,317 5.8 -21.6°
Maximum altitude 19:02:44 64° 106° (ESE) 861 3.4 -22.5°
Drops below altitude 10° 19:07:59 10° 25° (NNE) 2,340 6.0 -23.4°
Sets 19:10:24 0° 23° (NNE) 3,272 6.8 -23.8°
